Location: Gälforsberget
(66.6500°N, 22.4167°E)
Time: 20:00:16
(UTC+00:00)

Cosmos 1908 Rocket - Pass Details

Date: 11 April 2026
Orbit: 599 x 625 km, 82.5° (Epoch: 16 May)

Event Time Altitude Azimuth Distance (km) Brightness Sun altitude
Exits shadow 21:22:17 15° 202° (SSW) 1,687 5.3 -13.7°
Maximum altitude 21:25:57 81° 289° (WNW) 626 3.6 -13.8°
Drops below altitude 10° 21:30:19 10° 18° (NNE) 1,968 7.0 -14.0°
Sets 21:32:32 0° 19° (NNE) 2,873 8.0 -14.0°
